Date,TemperatureHighF,TemperatureAvgF,TemperatureLowF,DewpointHighF,DewpointAvgF,DewpointLowF,HumidityHigh,HumidityAvg,HumidityLow,PressureMaxIn,PressureMinIn,WindSpeedMaxMPH,WindSpeedAvgMPH,GustSpeedMaxMPH,PrecipitationSumIn
2013-5-1,82.6,69.7,55.6,74.8,66.3,55.3,99,90,70,29.98,29.87,15,4,15,0.00
2013-5-2,75.4,68.0,58.8,70.7,65.9,58.4,99,93,78,30.04,29.91,14,2,14,0.00
2013-5-3,124.0,64.3,44.4,69.0,62.2,44.2,99,93,77,29.91,29.64,24,9,24,0.37
2013-5-4,53.8,47.2,41.7,50.6,46.0,41.5,99,96,82,29.86,29.75,11,4,11,0.71
2013-5-5,61.7,55.1,44.1,60.5,54.8,43.8,99,99,95,29.83,29.70,10,2,10,0.01
2013-5-6,67.8,58.2,53.4,66.7,57.9,53.2,99,99,95,29.81,29.69,15,4,15,0.06
2013-5-7,74.1,62.4,50.9,70.0,61.0,50.6,99,95,81,29.88,29.79,14,2,14,0.01
2013-5-8,82.6,67.8,55.6,70.9,63.7,55.3,99,88,58,29.93,29.83,11,2,11,0.00
2013-5-9,81.5,70.1,61.2,73.3,67.3,60.9,99,91,75,29.93,29.80,23,5,23,0.00
2013-5-10,76.8,68.0,62.8,75.6,67.7,62.5,99,99,90,29.84,29.70,17,5,17,0.40
2013-5-11,72.3,62.0,55.4,65.3,58.8,8.2,99,90,67,30.00,29.82,13,3,13,0.00
2013-5-12,65.5,55.1,43.7,49.7,44.9,38.1,99,71,44,30.09,30.00,12,2,12,0.00
2013-5-13,71.6,57.0,39.0,55.4,47.2,38.8,99,74,43,30.15,30.00,14,2,14,0.00
2013-5-14,86.4,71.8,54.1,72.5,64.4,52.7,99,79,59,30.00,29.80,27,10,27,0.00
2013-5-15,79.2,73.5,70.0,68.9,66.1,62.9,84,78,67,29.86,29.80,21,6,21,0.00
2013-5-16,82.2,74.3,68.4,73.6,69.5,63.2,99,86,68,29.87,29.78,15,5,15,0.00
2013-5-17,72.0,68.3,65.5,71.7,68.0,65.2,99,99,99,29.88,29.80,15,5,15,0.22
2013-5-18,82.0,72.3,-14.3,78.8,71.4,-15.3,99,97,85,29.88,29.80,8,2,8,0.01
2013-5-19,88.9,79.0,69.6,86.3,77.6,69.2,99,96,77,29.82,29.72,19,6,19,0.00
2013-5-20,86.9,79.4,71.6,83.2,78.2,71.3,99,96,83,29.84,29.69,21,8,21,0.00
2013-5-21,80.4,71.4,66.4,79.1,71.1,66.1,99,99,91,29.82,29.67,27,8,27,0.83
2013-5-22,78.8,70.6,64.4,75.0,69.2,64.1,99,95,79,29.75,29.64,24,8,24,0.13
2013-5-23,75.0,67.2,57.4,68.8,64.8,57.1,99,93,77,30.07,29.74,21,5,21,0.00
2013-5-24,70.7,59.4,48.0,58.3,53.8,47.6,99,84,51,30.25,30.06,17,4,17,0.00
2013-5-25,77.7,63.1,46.9,64.7,56.6,46.7,99,82,42,30.25,29.76,13,3,13,0.00
2013-5-26,82.0,70.4,59.2,73.1,65.9,58.7,99,87,69,29.79,29.67,14,5,14,0.00
2013-5-27,84.9,78.9,68.2,78.0,72.6,66.4,99,81,67,29.67,29.51,24,9,24,0.00
2013-5-28,86.9,79.0,69.8,79.8,74.3,67.4,99,86,68,29.61,29.52,25,10,25,0.00
2013-5-29,87.8,79.9,66.6,79.2,74.8,66.0,99,85,69,29.58,29.52,21,7,21,0.00
2013-5-30,87.3,78.7,0.0,83.0,77.4,68.6,99,94,80,29.76,29.33,32,10,32,0.21
2013-5-31,81.5,75.1,69.3,81.3,74.9,68.6,99,99,99,29.75,29.24,21,8,21,0.35